SCP
-0 0 0 0 0 -0 0 0 0 0 0 -0 -0 0 0 0 0 0 -0 -0 -0 -0 0 0 0 -0 -0 -0 -0 -0 -0 -0 -0 -0 -0 -0 -0 -0 -0 -0 -0 -0 -0 -0 -0 -0 -0 -0 -0
0 0 0 0 0 -0 -0 0 0 0 0 0 0 0 0 0 -0 -0 -0 -0 -0 -0 -0 -0 -0 -0 -0 -0 -0 -0 -0 -0 -0 -0 -0 -0 -0 -0 -0 -0 -0 -0 -0 -0 -0 -0 -0 -0 -0
0 -0 0 0 0 0 -0 -0 -0 0 0 0 0 0 0 -0 -0 -0 -0 -0 -0 -0 -0 -0 -0 -0 -0 -0 -0 -0 -0 -0 -0 -0 -0 -0 0 -0 -0 -0 -0 -0 -0 -0 -0 -0 -0 -0 -0
0 0 0 -0 -0 -0 -0 -0 0 -0 0 0 0 0 -0 -0 -0 0 -0 -0 -0 -0 -0 -0 -0 -0 -0 -0 -0 -0 -0 -0 -0 -0 -0 0 -0 -0 -0 -0 -0 -0 -0 -0 -0 -0 -0 -0 -0
0 0 -0 -0 -0 -0 -0 -0 0 -0 0 0 0 0 0 -0 -0 -0 -0 -0 -0 -0 -0 -0 -1 -0 -0 -0 -0 -0 -0 -0 -0 -0 -0 0 0 -0 -0 -0 -0 -0 -0 -0 -0 -0 -0 -0 -0
0 0 -0 -0 -0 0 0 -0 -0 0 0 -0 -0 -0 0 -0 -0 -0 -0 -0 -0 -1 -0 -0 -0 -0 -0 -0 -0 -0 -0 -0 -0 -0 -0 -0 -0 -0 0 -0 -0 -0 -0 -0 -0 -0 -0 0 -0
-0 -0 -0 -0 -0 -0 0 0 0 -0 0 0 0 0 -0 -0 -0 -0 -0 -0 -0 -0 -1 -0 -0 -0 -0 -0 -0 -0 -0 -0 -0 -0 -0 -0 -0 -0 0 -0 -0 -0 -0 -0 -0 -0 -0 0 0
0 0 -0 -0 0 -0 0 0 0 0 0 0 0 0 -0 -0 -0 -0 -0 -0 -0 -0 -0 -0 -0 -0 -0 -0 -0 -0 -0 -0 -0 -0 -0 -0 -0 -0 -0 -0 0 0 -0 -0 -0 -0 -0 0 0
0 0 -0 -0 0 0 0 0 0 0 0 0 0 0 -0 -0 -0 -1 -0 -0 -0 -0 -0 -0 -0 -0 -0 -0 -0 -0 -0 -0 -0 -0 -0 -0 0 -0 -0 -0 0 0 0 -0 -0 -0 -0 -0 -0
-0 0 -0 0 -0 0 -0 0 0 0 0 0 -0 0 -0 -0 -1 -1 -1 -0 -0 -0 -0 -0 -0 -0 -0 -0 -0 -0 -0 -0 -0 0 -0 0 0 0 -0 -0 -0 -0 -0 -0 -0 -0 -0 -0 0
-0 0 0 -0 0 -0 0 0 0 0 1 -0 -0 -0 -0 -0 -0 -1 -1 -1 -0 -0 -0 -0 -0 -0 -0 -0 -0 -0 0 -0 -0 -0 -0 0 0 0 0 0 -0 -0 -0 0 0 0 0 0 0
-0 -0 0 0 -0 -0 0 0 0 0 0 -0 -0 -0 -0 -0 -0 -1 -1 -0 -0 -0 -0 -0 -0 -0 -0 -0 -0 -0 -0 0 0 0 -0 0 0 0 0 0 0 0 0 0 0 -0 -0 0 0
-0 -0 0 0 0 0 -0 0 0 0 -0 -0 -0 -0 0 0 -0 -0 -1 -0 -0 -0 -0 -0 -0 -0 -0 0 -0 -0 -0 -0 0 0 -0 0 0 0 0 -0 -0 -0 -0 -0 0 -0 -0 0 0
0 0 0 0 0 0 0 0 0 0 -0 -0 -0 0 0 -0 -0 -0 -0 -0 -0 -0 -0 -0 -0 -0 -0 -0 -0 0 0 0 -0 -0 -0 -0 -0 -0 -0 0 0 -0 -0 0 -0 -0 0 0 -0
0 0 0 0 0 0 0 0 0 0 0 -0 0 0 0 0 -0 -0 -0 -0 -0 -0 -1 -0 -0 0 -0 -0 -0 0 0 0 0 -0 -0 -0 -0 -0 -0 -0 0 -0 -0 -0 0 0 0 0 0
0 -0 -0 -0 0 0 0 0 0 0 0 0 0 0 0 0 0 -0 -0 -0 -0 -0 -1 -0 -0 -0 0 -0 0 0 0 0 0 0 0 -0 -0 -0 -0 -0 -0 -0 0 -0 0 -0 0 0 0
-0 -0 0 0 -0 0 0 0 0 0 0 0 0 1 0 0 0 0 -0 -0 -0 0 0 0 -0 -0 -0 0 0 0 0 0 0 0 0 -0 -0 -0 -0 -0 -0 -0 0 0 0 0 0 0 -0
-0 -0 -0 0 0 0 0 0 0 0 -0 0 0 0 0 0 0 0 -0 -0 -0 0 0 -0 0 -0 -0 0 0 0 0 0 0 0 0 0 0 0 0 0 -0 -0 -0 -0 -0 -0 -0 -0 -0
0 0 0 0 0 0 0 0 0 0 0 0 0 0 0 0 0 0 -0 -0 0 -0 0 0 -0 -0 -0 0 0 0 0 0 0 0 0 0 0 0 0 0 -0 -0 -0 -0 -0 0 -0 0 0
-0 0 -0 -0 0 0 0 0 0 0 0 0 0 0 0 0 0 0 -0 0 0 0 0 -0 -0 -0 -1 -0 -0 0 0 0 0 0 0 0 0 0 0 0 0 0 0 0 -0 -0 -0 0 -0
-0 -0 0 0 0 0 0 0 0 0 0 0 0 0 0 0 0 0 0 0 0 0 -0 -0 0 0 -0 -1 0 0 0 0 0 0 0 0 0 0 0 0 0 0 0 0 0 0 0 -0 0
0 0 0 0 0 0 0 0 -0 0 0 0 0 0 0 0 0 0 -0 0 0 0 0 0 -0 0 0 -0 0 0 0 0 0 0 0 0 1 0 0 0 0 0 0 0 0 0 0 0 -0
0 0 0 0 0 0 -0 -0 0 0 0 -0 -0 0 0 0 0 0 0 -0 -0 0 0 0 0 -0 0 0 0 0 0 0 0 0 0 0 0 0 0 0 0 0 0 0 0 0 0 0 0
0 0 0 -0 0 -0 -0 -0 0 0 0 0 -0 -0 -0 0 0 0 0 0 -0 0 0 0 0 0 0 0 0 0 0 0 0 0 0 0 1 1 0 0 0 0 0 0 0 0 0 0 0
0 0 0 0 0 -0 0 0 0 0 0 0 -0 -0 0 0 0 0 0 0 0 0 0 1 1 0 0 0 0 0 0 0 0 0 0 0 0 0 0 0 -0 0 0 0 0 0 0 0 0
0 -0 0 0 0 -0 0 0 0 0 0 0 -0 -0 -0 -0 0 0 0 0 0 0 0 1 1 0 0 0 0 0 0 0 0 0 0 0 0 0 0 0 0 0 0 0 0 0 0 0 0
0 0 -0 -0 0 0 0 0 0 -0 -0 0 -0 -0 -0 -0 -0 0 0 0 0 0 0 1 1 0 0 0 0 0 0 0 0 0 0 0 0 0 0 0 0 0 0 0 0 0 0 0 0
-0 0 0 0 0 0 0 -0 0 -0 0 -0 -0 -0 -0 -0 0 0 0 0 0 0 0 0 0 0 0 0 0 0 0 -0 0 0 0 -0 -0 0 0 0 0 0 0 0 0 0 0 0 0
0 -0 -0 0 0 0 0 -0 -0 0 0 0 -0 -0 -0 -0 -0 0 0 0 0 0 0 0 0 0 0 0 0 0 0 0 0 0 0 0 -0 0 -0 -0 0 0 0 0 0 0 0 0 0
-0 0 0 0 0 0 0 -0 0 -0 0 -0 0 0 -0 0 0 0 0 -0 0 0 0 0 0 0 0 0 0 0 0 0 0 0 0 0 0 0 0 -0 -0 0 0 0 0 0 0 0 0
Wind_Speed_500mb
11 19 8 2 10 14 13 3 3 7 7 5 18 15 14 9 7 7 41 64 64 67 64 60 56 51 44 41 40 39 39 40 43 43 42 37 34 33 32 31 31 31 31 32 32 32 33 33 35
3 6 6 3 9 9 7 5 8 3 16 29 36 36 16 6 18 48 76 51 63 67 67 62 57 51 44 39 37 37 37 38 40 39 36 32 30 29 30 28 28 27 27 28 27 30 30 31 33
7 6 4 4 1 5 6 26 27 15 17 17 9 21 10 16 50 76 50 61 64 64 65 62 58 49 40 35 33 34 34 34 34 33 30 27 27 28 27 27 27 26 24 24 24 26 27 30 34
7 7 2 6 8 15 15 22 27 6 21 31 27 12 18 29 58 48 56 56 62 61 59 59 55 48 38 32 31 32 31 30 29 26 25 25 25 25 23 22 21 21 21 22 23 24 25 24 29
7 7 3 5 4 21 25 52 57 11 18 25 32 18 37 41 42 53 50 55 60 58 55 55 53 47 40 36 34 32 29 27 25 23 21 20 21 20 18 16 15 16 18 19 19 19 25 24 25
1 6 1 3 10 5 11 27 37 26 34 35 33 35 16 47 54 54 44 45 53 55 54 52 49 46 42 38 35 32 29 26 22 20 17 15 14 14 14 9 7 11 16 18 18 19 20 25 26
7 3 8 4 4 29 14 19 37 39 34 10 31 16 39 64 50 50 42 43 49 45 48 48 48 46 42 38 34 31 29 26 23 19 17 16 14 13 11 9 9 14 16 17 19 20 21 23 24
11 10 6 2 11 6 11 20 30 30 11 34 51 14 48 63 64 61 48 52 49 46 46 44 44 44 42 39 35 31 29 27 26 23 20 18 18 17 14 11 18 17 19 20 21 21 22 24 25
23 4 3 7 4 9 21 10 7 16 29 18 21 47 69 72 72 64 61 57 51 43 39 41 44 42 39 36 35 32 30 28 28 26 24 23 23 20 23 24 18 28 22 22 23 21 22 23 25
7 7 4 9 9 15 29 20 26 15 24 33 47 47 59 66 74 73 69 63 52 44 39 41 49 44 38 34 31 26 21 24 26 26 23 22 20 13 14 27 20 21 25 25 21 23 25 24 24
11 10 10 2 6 36 24 9 12 34 6 58 62 71 62 61 60 69 70 60 50 38 30 21 45 41 35 32 29 25 12 22 21 20 18 17 15 15 18 13 24 21 20 20 18 23 23 19 18
1 17 19 15 17 5 22 29 16 23 25 60 68 73 72 64 62 60 66 59 50 40 26 26 33 37 26 33 34 18 8 18 20 21 17 16 14 14 14 18 18 18 15 19 20 23 21 20 23
5 7 27 31 29 25 8 30 20 14 57 66 63 68 72 63 60 56 61 52 44 37 32 36 36 36 26 26 24 19 18 19 18 18 18 19 14 11 18 17 17 15 13 8 17 19 27 23 27
18 7 8 24 30 31 10 17 28 37 69 69 71 71 67 62 59 63 66 55 46 38 39 42 38 35 28 24 23 24 23 25 19 16 18 21 17 15 17 18 19 20 12 15 13 14 25 27 29
42 7 15 18 10 14 10 5 12 63 73 67 64 69 62 58 58 58 66 65 54 47 46 42 41 41 34 34 31 32 30 27 29 19 21 22 22 16 19 17 20 18 12 11 16 23 25 30 33
11 6 6 14 17 10 13 7 9 60 62 57 56 60 66 45 53 30 32 65 60 55 54 43 39 42 37 41 33 37 39 34 24 21 22 14 23 23 23 20 20 17 13 17 20 20 29 29 30
12 6 11 9 14 9 7 1 19 21 47 37 42 29 21 29 28 30 10 25 66 57 52 41 43 36 28 36 43 33 49 46 40 30 25 23 29 28 27 26 24 28 27 19 21 25 23 30 28
5 8 9 8 6 21 20 10 17 45 64 57 60 35 38 47 30 51 27 39 47 35 49 48 51 45 39 34 38 35 37 50 47 39 32 27 28 32 29 26 26 29 28 32 24 25 23 26 25
16 15 13 3 12 17 12 10 8 17 48 32 34 23 29 41 32 44 38 54 36 44 49 52 64 60 50 47 48 44 39 40 45 43 39 37 36 35 31 32 32 33 34 29 24 19 26 22 25
21 14 12 6 15 22 7 3 3 5 21 28 25 26 41 34 45 65 50 64 32 39 50 32 67 65 58 51 50 48 40 35 33 43 44 45 46 43 43 42 38 37 35 30 29 26 23 26 25
23 12 8 9 9 13 17 12 10 3 4 24 20 26 16 31 42 58 59 72 44 52 58 40 46 61 61 58 48 46 41 42 36 43 52 53 57 56 52 46 42 41 37 36 33 29 30 27 30
11 5 9 4 8 10 5 7 8 12 9 16 15 16 10 16 20 18 49 66 55 55 43 49 47 50 52 52 49 45 40 40 45 43 47 51 57 62 60 57 44 45 46 42 40 34 32 28 34
14 9 3 2 8 7 1 10 4 11 11 15 21 3 4 16 21 28 16 24 37 45 43 34 41 35 38 31 38 35 31 35 45 50 55 56 55 58 66 63 49 43 46 45 42 43 41 36 36
6 6 14 11 7 8 13 9 11 5 9 15 22 30 17 24 19 15 14 6 15 44 41 31 29 20 30 25 19 26 28 35 43 54 61 64 63 67 54 70 60 52 44 45 47 46 49 43 41
13 14 8 9 9 7 12 9 14 13 15 13 24 26 30 26 21 18 12 10 14 24 36 34 30 22 19 18 18 20 28 40 55 62 62 71 68 62 71 77 77 55 47 36 37 38 45 52 53
9 16 12 10 5 6 17 3 10 15 36 12 18 8 39 29 18 17 20 19 24 27 27 27 26 16 14 15 11 12 25 42 42 33 35 22 25 43 52 62 55 39 38 29 29 37 46 49 52
12 6 17 14 6 9 6 11 19 20 12 9 9 31 47 36 21 20 20 18 16 15 15 10 8 10 7 1 9 12 29 45 48 32 32 17 2 8 19 34 31 44 33 28 32 34 39 47 47
17 8 2 5 10 5 5 8 13 13 24 15 13 50 49 37 33 25 19 18 18 14 13 8 3 7 12 13 17 13 24 34 42 43 40 23 13 13 6 22 32 47 28 32 32 35 38 42 46
9 8 11 12 7 10 8 12 18 24 24 11 21 21 54 48 44 36 27 23 20 11 4 1 4 8 9 15 19 19 25 29 27 28 34 32 16 14 15 18 7 24 28 24 29 31 38 35 39
11 5 12 8 5 5 8 12 18 30 29 25 35 20 52 57 52 41 30 31 23 10 5 2 3 3 9 10 15 16 24 28 25 24 19 16 10 11 14 16 17 11 18 25 28 27 34 36 32
Wind_Direction_500mb
141 112 105 237 51 53 314 4 126 355 73 302 120 151 142 108 159 185 149 160 160 160 160 156 151 144 134 129 124 121 121 124 129 133 131 128 125 118 112 108 106 110 112 114 117 117 118 120 122
127 102 70 299 95 132 257 217 156 234 131 121 94 108 118 110 121 138 150 161 162 162 163 162 158 149 137 132 131 128 125 127 132 135 135 133 127 120 116 113 110 112 117 120 120 121 120 124 128
119 67 281 43 190 192 75 42 20 154 148 95 97 85 81 106 139 143 153 158 162 165 167 167 165 160 151 143 140 138 136 132 134 138 139 136 132 127 122 117 115 118 122 127 128 126 126 129 136
149 198 41 61 312 29 93 65 3 270 108 106 100 82 93 144 143 148 149 159 164 164 168 172 172 171 168 162 156 148 144 142 143 141 142 140 137 133 128 122 116 124 135 137 133 131 134 141 150
178 260 295 13 317 85 112 141 187 207 93 119 116 110 128 145 142 143 152 162 166 164 168 173 176 176 176 172 168 161 156 153 151 154 154 153 148 145 145 139 132 139 148 156 155 148 148 148 158
232 250 51 292 321 90 134 158 160 148 118 105 103 107 128 167 149 150 154 163 171 164 166 170 174 175 174 173 172 173 172 170 167 167 167 172 174 168 166 171 166 162 168 176 178 172 168 165 155
195 17 241 145 183 107 132 156 144 137 150 133 125 114 141 156 157 156 158 154 160 164 168 170 172 175 175 178 181 185 187 187 188 188 190 193 195 197 204 215 228 200 198 194 195 192 184 182 181
226 148 277 241 179 224 133 153 139 137 117 138 133 158 160 167 162 164 165 152 154 160 171 180 181 183 184 186 191 194 198 201 203 204 209 211 212 216 217 251 240 224 213 210 214 210 208 204 210
232 236 143 188 133 171 170 157 90 103 137 158 199 160 162 161 164 171 170 164 164 167 176 183 187 190 193 194 196 198 205 208 212 216 219 219 221 219 237 269 274 232 224 215 218 221 219 223 229
191 100 240 200 134 171 186 136 137 131 123 117 120 149 156 163 168 177 175 172 172 176 183 194 192 188 194 198 203 200 212 220 222 226 224 228 232 238 248 278 247 221 225 220 225 231 234 232 232
218 164 179 49 125 151 182 95 120 128 110 149 146 155 164 161 172 180 182 177 177 177 174 174 197 196 201 207 199 182 219 218 220 224 221 227 241 249 238 277 238 221 216 217 216 232 230 227 235
217 162 163 178 167 173 165 154 150 165 172 162 159 164 166 171 177 186 186 184 177 180 181 178 178 186 187 206 189 187 193 185 192 188 205 222 253 258 249 211 216 217 221 229 223 222 221 216 212
162 244 182 194 188 206 222 165 192 195 161 163 162 166 174 177 182 186 190 186 186 190 191 192 181 184 185 182 191 192 205 206 198 208 229 244 275 274 231 214 230 229 222 241 226 222 214 212 215
297 325 181 211 227 205 183 144 126 166 157 163 168 173 178 185 187 185 188 192 200 204 198 199 191 194 197 196 200 204 224 228 228 245 245 250 262 276 248 234 231 241 247 256 239 228 221 229 230
341 270 328 299 206 169 156 43 138 162 159 167 173 175 182 188 196 204 205 199 203 201 199 197 198 197 209 202 210 220 226 231 232 268 259 245 241 255 254 247 241 256 266 264 253 235 233 226 231
332 28 26 291 158 190 111 226 270 164 161 172 173 181 186 188 198 180 204 210 201 195 205 206 201 211 206 211 228 238 240 238 230 241 241 238 234 245 254 253 255 256 274 258 256 251 243 235 234
1 287 235 283 217 148 90 55 353 40 168 133 137 142 216 190 190 168 31 229 197 193 195 208 211 220 218 221 223 237 244 240 239 255 240 251 249 247 258 255 264 253 244 264 259 249 251 239 237
310 276 238 176 274 72 93 92 61 70 114 129 139 168 209 223 192 189 178 194 211 211 206 208 212 224 227 223 226 226 232 237 243 233 235 250 253 249 249 263 255 239 237 246 255 254 253 244 243
267 273 250 277 148 72 82 68 21 60 112 137 158 189 203 222 211 188 182 172 208 226 214 238 222 216 225 226 223 226 220 222 226 232 240 242 256 255 252 253 244 245 236 239 247 252 244 241 221
278 226 274 218 128 111 175 105 285 81 125 142 196 203 193 210 213 198 193 182 209 219 217 223 206 215 227 230 234 237 247 247 254 240 239 244 248 254 251 244 248 242 238 227 230 239 250 240 234
268 211 259 176 109 44 95 353 342 285 90 175 119 106 169 203 213 199 202 204 216 208 204 198 202 220 225 233 238 237 246 248 244 238 242 241 251 249 251 250 244 244 241 227 230 240 245 249 247
230 202 277 183 110 179 90 215 308 342 333 337 67 64 101 143 129 168 212 220 233 212 217 198 206 220 223 235 243 244 263 256 257 261 246 248 252 258 255 257 254 246 242 237 235 234 238 247 245
230 169 228 334 112 93 26 102 144 289 340 351 301 75 240 131 119 85 117 222 226 227 227 223 224 219 216 232 248 260 270 286 276 267 264 261 256 249 248 251 255 251 241 234 235 235 235 241 242
189 105 37 53 83 16 309 111 319 347 287 307 328 354 154 144 117 120 97 70 197 226 224 222 216 206 232 253 259 281 288 283 283 280 273 265 256 248 269 250 243 245 239 239 242 242 242 241 246
74 59 1 351 24 203 270 65 227 231 224 218 293 316 165 136 116 109 113 107 130 177 207 209 196 207 222 237 259 284 304 307 298 291 286 274 257 246 235 248 242 228 228 225 245 245 248 247 249
184 146 157 212 126 244 345 283 251 273 280 357 295 198 158 142 121 123 131 124 127 136 144 159 184 207 238 256 274 328 358 4 336 338 337 322 252 237 234 231 235 239 234 231 238 249 254 256 251
246 205 185 116 56 85 293 304 300 279 301 309 262 161 163 153 136 116 143 160 168 152 146 158 200 245 251 334 9 16 26 20 19 9 18 27 49 209 231 238 225 251 251 241 248 250 258 258 252
157 178 90 16 140 162 248 264 233 287 263 309 342 169 166 159 149 139 130 138 142 156 168 167 147 93 51 53 15 341 339 356 14 25 31 40 85 102 106 218 223 230 247 259 258 261 266 265 261
351 314 63 106 86 146 173 253 216 223 225 226 277 214 174 167 159 145 145 156 160 161 167 309 70 27 351 5 4 2 351 358 3 10 28 37 35 20 29 45 198 214 283 287 279 274 272 267 266
177 29 114 122 196 227 173 260 203 202 218 210 247 276 183 167 156 154 160 160 161 174 198 56 81 323 337 1 350 349 346 352 5 6 352 347 343 336 332 337 12 329 314 309 288 278 271 263 263
Wind_Speed_850mb
11 19 8 2 10 14 13 3 3 7 7 5 18 15 14 9 7 7 41 64 64 67 64 60 56 51 44 41 40 39 39 40 43 43 42 37 34 33 32 31 31 31 31 32 32 32 33 33 35
3 6 6 3 9 9 7 5 8 3 16 29 36 36 16 6 18 48 76 51 63 67 67 62 57 51 44 39 37 37 37 38 40 39 36 32 30 29 30 28 28 27 27 28 27 30 30 31 33
7 6 4 4 1 5 6 26 27 15 17 17 9 21 10 16 50 76 50 61 64 64 65 62 58 49 40 35 33 34 34 34 34 33 30 27 27 28 27 27 27 26 24 24 24 26 27 30 34
7 7 2 6 8 15 15 22 27 6 21 31 27 12 18 29 58 48 56 56 62 61 59 59 55 48 38 32 31 32 31 30 29 26 25 25 25 25 23 22 21 21 21 22 23 24 25 24 29
7 7 3 5 4 21 25 52 57 11 18 25 32 18 37 41 42 53 50 55 60 58 55 55 53 47 40 36 34 32 29 27 25 23 21 20 21 20 18 16 15 16 18 19 19 19 25 24 25
1 6 1 3 10 5 11 27 37 26 34 35 33 35 16 47 54 54 44 45 53 55 54 52 49 46 42 38 35 32 29 26 22 20 17 15 14 14 14 9 7 11 16 18 18 19 20 25 26
7 3 8 4 4 29 14 19 37 39 34 10 31 16 39 64 50 50 42 43 49 45 48 48 48 46 42 38 34 31 29 26 23 19 17 16 14 13 11 9 9 14 16 17 19 20 21 23 24
11 10 6 2 11 6 11 20 30 30 11 34 51 14 48 63 64 61 48 52 49 46 46 44 44 44 42 39 35 31 29 27 26 23 20 18 18 17 14 11 18 17 19 20 21 21 22 24 25
23 4 3 7 4 9 21 10 7 16 29 18 21 47 69 72 72 64 61 57 51 43 39 41 44 42 39 36 35 32 30 28 28 26 24 23 23 20 23 24 18 28 22 22 23 21 22 23 25
7 7 4 9 9 15 29 20 26 15 24 33 47 47 59 66 74 73 69 63 52 44 39 41 49 44 38 34 31 26 21 24 26 26 23 22 20 13 14 27 20 21 25 25 21 23 25 24 24
11 10 10 2 6 36 24 9 12 34 6 58 62 71 62 61 60 69 70 60 50 38 30 21 45 41 35 32 29 25 12 22 21 20 18 17 15 15 18 13 24 21 20 20 18 23 23 19 18
1 17 19 15 17 5 22 29 16 23 25 60 68 73 72 64 62 60 66 59 50 40 26 26 33 37 26 33 34 18 8 18 20 21 17 16 14 14 14 18 18 18 15 19 20 23 21 20 23
5 7 27 31 29 25 8 30 20 14 57 66 63 68 72 63 60 56 61 52 44 37 32 36 36 36 26 26 24 19 18 19 18 18 18 19 14 11 18 17 17 15 13 8 17 19 27 23 27
18 7 8 24 30 31 10 17 28 37 69 69 71 71 67 62 59 63 66 55 46 38 39 42 38 35 28 24 23 24 23 25 19 16 18 21 17 15 17 18 19 20 12 15 13 14 25 27 29
42 7 15 18 10 14 10 5 12 63 73 67 64 69 62 58 58 58 66 65 54 47 46 42 41 41 34 34 31 32 30 27 29 19 21 22 22 16 19 17 20 18 12 11 16 23 25 30 33
11 6 6 14 17 10 13 7 9 60 62 57 56 60 66 45 53 30 32 65 60 55 54 43 39 42 37 41 33 37 39 34 24 21 22 14 23 23 23 20 20 17 13 17 20 20 29 29 30
12 6 11 9 14 9 7 1 19 21 47 37 42 29 21 29 28 30 10 25 66 57 52 41 43 36 28 36 43 33 49 46 40 30 25 23 29 28 27 26 24 28 27 19 21 25 23 30 28
5 8 9 8 6 21 20 10 17 45 64 57 60 35 38 47 30 51 27 39 47 35 49 48 51 45 39 34 38 35 37 50 47 39 32 27 28 32 29 26 26 29 28 32 24 25 23 26 25
16 15 13 3 12 17 12 10 8 17 48 32 34 23 29 41 32 44 38 54 36 44 49 52 64 60 50 47 48 44 39 40 45 43 39 37 36 35 31 32 32 33 34 29 24 19 26 22 25
21 14 12 6 15 22 7 3 3 5 21 28 25 26 41 34 45 65 50 64 32 39 50 32 67 65 58 51 50 48 40 35 33 43 44 45 46 43 43 42 38 37 35 30 29 26 23 26 25
23 12 8 9 9 13 17 12 10 3 4 24 20 26 16 31 42 58 59 72 44 52 58 40 46 61 61 58 48 46 41 42 36 43 52 53 57 56 52 46 42 41 37 36 33 29 30 27 30
11 5 9 4 8 10 5 7 8 12 9 16 15 16 10 16 20 18 49 66 55 55 43 49 47 50 52 52 49 45 40 40 45 43 47 51 57 62 60 57 44 45 46 42 40 34 32 28 34
14 9 3 2 8 7 1 10 4 11 11 15 21 3 4 16 21 28 16 24 37 45 43 34 41 35 38 31 38 35 31 35 45 50 55 56 55 58 66 63 49 43 46 45 42 43 41 36 36
6 6 14 11 7 8 13 9 11 5 9 15 22 30 17 24 19 15 14 6 15 44 41 31 29 20 30 25 19 26 28 35 43 54 61 64 63 67 54 70 60 52 44 45 47 46 49 43 41
13 14 8 9 9 7 12 9 14 13 15 13 24 26 30 26 21 18 12 10 14 24 36 34 30 22 19 18 18 20 28 40 55 62 62 71 68 62 71 77 77 55 47 36 37 38 45 52 53
9 16 12 10 5 6 17 3 10 15 36 12 18 8 39 29 18 17 20 19 24 27 27 27 26 16 14 15 11 12 25 42 42 33 35 22 25 43 52 62 55 39 38 29 29 37 46 49 52
12 6 17 14 6 9 6 11 19 20 12 9 9 31 47 36 21 20 20 18 16 15 15 10 8 10 7 1 9 12 29 45 48 32 32 17 2 8 19 34 31 44 33 28 32 34 39 47 47
17 8 2 5 10 5 5 8 13 13 24 15 13 50 49 37 33 25 19 18 18 14 13 8 3 7 12 13 17 13 24 34 42 43 40 23 13 13 6 22 32 47 28 32 32 35 38 42 46
9 8 11 12 7 10 8 12 18 24 24 11 21 21 54 48 44 36 27 23 20 11 4 1 4 8 9 15 19 19 25 29 27 28 34 32 16 14 15 18 7 24 28 24 29 31 38 35 39
11 5 12 8 5 5 8 12 18 30 29 25 35 20 52 57 52 41 30 31 23 10 5 2 3 3 9 10 15 16 24 28 25 24 19 16 10 11 14 16 17 11 18 25 28 27 34 36 32
Wind_Direction_850mb
141 112 105 237 51 53 314 4 126 355 73 302 120 151 142 108 159 185 149 160 160 160 160 156 151 144 134 129 124 121 121 124 129 133 131 128 125 118 112 108 106 110 112 114 117 117 118 120 122
127 102 70 299 95 132 257 217 156 234 131 121 94 108 118 110 121 138 150 161 162 162 163 162 158 149 137 132 131 128 125 127 132 135 135 133 127 120 116 113 110 112 117 120 120 121 120 124 128
119 67 281 43 190 192 75 42 20 154 148 95 97 85 81 106 139 143 153 158 162 165 167 167 165 160 151 143 140 138 136 132 134 138 139 136 132 127 122 117 115 118 122 127 128 126 126 129 136
149 198 41 61 312 29 93 65 3 270 108 106 100 82 93 144 143 148 149 159 164 164 168 172 172 171 168 162 156 148 144 142 143 141 142 140 137 133 128 122 116 124 135 137 133 131 134 141 150
178 260 295 13 317 85 112 141 187 207 93 119 116 110 128 145 142 143 152 162 166 164 168 173 176 176 176 172 168 161 156 153 151 154 154 153 148 145 145 139 132 139 148 156 155 148 148 148 158
232 250 51 292 321 90 134 158 160 148 118 105 103 107 128 167 149 150 154 163 171 164 166 170 174 175 174 173 172 173 172 170 167 167 167 172 174 168 166 171 166 162 168 176 178 172 168 165 155
195 17 241 145 183 107 132 156 144 137 150 133 125 114 141 156 157 156 158 154 160 164 168 170 172 175 175 178 181 185 187 187 188 188 190 193 195 197 204 215 228 200 198 194 195 192 184 182 181
226 148 277 241 179 224 133 153 139 137 117 138 133 158 160 167 162 164 165 152 154 160 171 180 181 183 184 186 191 194 198 201 203 204 209 211 212 216 217 251 240 224 213 210 214 210 208 204 210
232 236 143 188 133 171 170 157 90 103 137 158 199 160 162 161 164 171 170 164 164 167 176 183 187 190 193 194 196 198 205 208 212 216 219 219 221 219 237 269 274 232 224 215 218 221 219 223 229
191 100 240 200 134 171 186 136 137 131 123 117 120 149 156 163 168 177 175 172 172 176 183 194 192 188 194 198 203 200 212 220 222 226 224 228 232 238 248 278 247 221 225 220 225 231 234 232 232
218 164 179 49 125 151 182 95 120 128 110 149 146 155 164 161 172 180 182 177 177 177 174 174 197 196 201 207 199 182 219 218 220 224 221 227 241 249 238 277 238 221 216 217 216 232 230 227 235
217 162 163 178 167 173 165 154 150 165 172 162 159 164 166 171 177 186 186 184 177 180 181 178 178 186 187 206 189 187 193 185 192 188 205 222 253 258 249 211 216 217 221 229 223 222 221 216 212
162 244 182 194 188 206 222 165 192 195 161 163 162 166 174 177 182 186 190 186 186 190 191 192 181 184 185 182 191 192 205 206 198 208 229 244 275 274 231 214 230 229 222 241 226 222 214 212 215
297 325 181 211 227 205 183 144 126 166 157 163 168 173 178 185 187 185 188 192 200 204 198 199 191 194 197 196 200 204 224 228 228 245 245 250 262 276 248 234 231 241 247 256 239 228 221 229 230
341 270 328 299 206 169 156 43 138 162 159 167 173 175 182 188 196 204 205 199 203 201 199 197 198 197 209 202 210 220 226 231 232 268 259 245 241 255 254 247 241 256 266 264 253 235 233 226 231
332 28 26 291 158 190 111 226 270 164 161 172 173 181 186 188 198 180 204 210 201 195 205 206 201 211 206 211 228 238 240 238 230 241 241 238 234 245 254 253 255 256 274 258 256 251 243 235 234
1 287 235 283 217 148 90 55 353 40 168 133 137 142 216 190 190 168 31 229 197 193 195 208 211 220 218 221 223 237 244 240 239 255 240 251 249 247 258 255 264 253 244 264 259 249 251 239 237
310 276 238 176 274 72 93 92 61 70 114 129 139 168 209 223 192 189 178 194 211 211 206 208 212 224 227 223 226 226 232 237 243 233 235 250 253 249 249 263 255 239 237 246 255 254 253 244 243
267 273 250 277 148 72 82 68 21 60 112 137 158 189 203 222 211 188 182 172 208 226 214 238 222 216 225 226 223 226 220 222 226 232 240 242 256 255 252 253 244 245 236 239 247 252 244 241 221
278 226 274 218 128 111 175 105 285 81 125 142 196 203 193 210 213 198 193 182 209 219 217 223 206 215 227 230 234 237 247 247 254 240 239 244 248 254 251 244 248 242 238 227 230 239 250 240 234
268 211 259 176 109 44 95 353 342 285 90 175 119 106 169 203 213 199 202 204 216 208 204 198 202 220 225 233 238 237 246 248 244 238 242 241 251 249 251 250 244 244 241 227 230 240 245 249 247
230 202 277 183 110 179 90 215 308 342 333 337 67 64 101 143 129 168 212 220 233 212 217 198 206 220 223 235 243 244 263 256 257 261 246 248 252 258 255 257 254 246 242 237 235 234 238 247 245
230 169 228 334 112 93 26 102 144 289 340 351 301 75 240 131 119 85 117 222 226 227 227 223 224 219 216 232 248 260 270 286 276 267 264 261 256 249 248 251 255 251 241 234 235 235 235 241 242
189 105 37 53 83 16 309 111 319 347 287 307 328 354 154 144 117 120 97 70 197 226 224 222 216 206 232 253 259 281 288 283 283 280 273 265 256 248 269 250 243 245 239 239 242 242 242 241 246
74 59 1 351 24 203 270 65 227 231 224 218 293 316 165 136 116 109 113 107 130 177 207 209 196 207 222 237 259 284 304 307 298 291 286 274 257 246 235 248 242 228 228 225 245 245 248 247 249
184 146 157 212 126 244 345 283 251 273 280 357 295 198 158 142 121 123 131 124 127 136 144 159 184 207 238 256 274 328 358 4 336 338 337 322 252 237 234 231 235 239 234 231 238 249 254 256 251
246 205 185 116 56 85 293 304 300 279 301 309 262 161 163 153 136 116 143 160 168 152 146 158 200 245 251 334 9 16 26 20 19 9 18 27 49 209 231 238 225 251 251 241 248 250 258 258 252
157 178 90 16 140 162 248 264 233 287 263 309 342 169 166 159 149 139 130 138 142 156 168 167 147 93 51 53 15 341 339 356 14 25 31 40 85 102 106 218 223 230 247 259 258 261 266 265 261
351 314 63 106 86 146 173 253 216 223 225 226 277 214 174 167 159 145 145 156 160 161 167 309 70 27 351 5 4 2 351 358 3 10 28 37 35 20 29 45 198 214 283 287 279 274 272 267 266
177 29 114 122 196 227 173 260 203 202 218 210 247 276 183 167 156 154 160 160 161 174 198 56 81 323 337 1 350 349 346 352 5 6 352 347 343 336 332 337 12 329 314 309 288 278 271 263 263